Preview of NWS' New Version of Forecast
This preview is not operational and should not be used for support decisions.

Regional Weather Roundup (RWR)

Issued by National Weather Service (NWS)

                            
000
ASUS45 KCYS 192010
RWRWY 

WYOMING REGIONAL WEATHER ROUNDUP
NATIONAL WEATHER SERVICE CHEYENNE WY
100 PM MST TUE FEB 19 2019

NOTE:  "FAIR" INDICATES FEW OR NO CLOUDS BELOW 12,000 FEET
WITH NO SIGNIFICANT WEATHER AND/OR OBSTRUCTIONS TO VISIBILITY.

WYZ001-192100-
...YELLOWSTONE NATIONAL PARK...
  
CITY           SKY/WX    TMP DP  RH WIND       PRES   REMARKS
LK YELLOWSTONE   N/A      7  -1  70 VRB7      29.71F WCI  -5          
W YELLOWSTONE  NOT AVBL                                               

$$
WYZ002>013-054>058-071-098>099-192100-
...NORTHERN WYOMING...
  
CITY           SKY/WX    TMP DP  RH WIND       PRES   REMARKS
JACKSON        CLOUDY    18   5  57 SE5       29.79F WCI  11          
CODY           SUNNY     23   8  52 NE8       29.78F WCI  14          
GREYBULL       SUNNY     18   7  62 SE5       29.88F WCI  11          
WORLAND        SUNNY     19   7  59 NE6       29.85F WCI  11          
SHERIDAN       SUNNY     13   1  59 CALM      29.86F                  
BUFFALO        SUNNY     20   4  50 CALM      29.77F                  
GILLETTE       SUNNY     14   7  73 S8        29.84F WCI   3          
HULETT         CLOUDY    19   9  63 SW12      29.86F WCI   7          
NEWCASTLE        N/A     18   7  62 SE10      29.90F WCI   6          

$$
WYZ014>020-022>026-101>103-192100-
...CENTRAL WYOMING...
  
CITY           SKY/WX    TMP DP  RH WIND       PRES   REMARKS
BIG PINEY      SUNNY     -3  -9  75 SE5       29.78F WCI -13          
PINEDALE       SUNNY     -2  -8  78 CALM      29.78F                  
DUBOIS         FAIR      16  -2  45 W18       29.66F WCI  -1          
LANDER         SUNNY     16   4  59 SE3       29.75F                  
RIVERTON       SUNNY     19   5  54 VRB5      29.77F WCI  12          
CASPER         CLOUDY    18   8  65 SW16      29.77F WCI   3          
DOUGLAS        MOSUNNY   19   9  65 CALM      29.81F                  

$$
WYZ021-027>030-104>119-192100-
...SOUTHERN WYOMING...
  
CITY           SKY/WX    TMP DP  RH WIND       PRES   REMARKS
EVANSTON       SUNNY     10   5  80 SW12      29.79F WCI  -5          
KEMMERER       SUNNY     12   3  67 W10       29.77F WCI  -1          
FORT BRIDGER   PTSUNNY   16   7  67 E16       29.82F HAZE    WCI   0  
ROCK SPRINGS   SUNNY      8   2  76 W9        29.78F WCI  -5          
DIXON          CLOUDY    13   2  61 E7        29.84F WCI   3          
RAWLINS        SUNNY     10   2  69 SW20      29.75F WCI  -9          
SARATOGA       FAIR      14   5  67 NW6       29.75F WCI   5          
LARAMIE        CLOUDY    12   5  73 NW8       29.67F WCI   0          
CHEYENNE       CLOUDY    17   9  70 VRB3      29.73F                  
TORRINGTON     LGT SNOW  20  17  88 SE12      29.85F WCI   8          
PINE BLUFFS    LGT SNOW  18  10  73 SE9       29.81F WCI   6          

$$